User: anonymous   Login
Location: Unspecified
(0.0000°N, 0.0000°E)
Time: 09:35:07
(UTC+00:00)
Language:

ESSA 2 - Orbit

View from above orbital plane
View from above orbital plane
View from above satellite
View from above satellite

Ground track
Ground track

The orbit data is extracted from the following two-line orbital elements,

1  2091U 66016A   17295.80606647 -.00000029 +00000-0 +71033-4 0  9992
2  2091 101.0963 242.2132 0038519 194.6040 194.2180 12.69371438392755
Epoch (UTC): 22 October 2017 19:20:44
Eccentricity: 0.0038519
inclination: 101.0963°
perigee height: 1354 km
apogee height: 1414 km
right ascension of ascending node: 242.2132°
argument of perigee: 194.6040°
revolutions per day: 12.69371438
mean anomaly at epoch: 194.2180°
orbit number at epoch: 39275

The dashed part of the orbit path shows where the satellite is in the earth's shadow,  

DLR